,,,PA_Meas_PMT16A,,PR_Meas_QMR101_102,,RH_Meas_QMH101,,SR_Meas_QMS101,,TA_Meas_QMH101,,GenWind,,GenWind,
date,time,status,PA,status,PR,status,RH,status,SR,status,TA,status,DirAvg,status,SpdAvg,
2008-08-08, 07:03:04,VALID,1004.02,VALID,0,VALID,94.888,VALID,29.2638,VALID,23.7053,VALID,352,VALID,0.458984,
2008-08-08, 07:04:04,VALID,1004.1,VALID,0,VALID,94.9567,VALID,30.37,VALID,23.723,VALID,352,VALID,0.308984,
2008-08-08, 07:05:04,VALID,1003.88,VALID,0,VALID,94.9414,VALID,31.2751,VALID,23.7035,VALID,352,VALID,0.422656,
2008-08-08, 07:06:04,VALID,1004.1,VALID,0,VALID,94.9109,VALID,31.8785,VALID,23.7443,VALID,352,VALID,0.199219,
2008-08-08, 07:07:04,VALID,1004.03,VALID,0,VALID,94.9185,VALID,32.0796,VALID,23.7248,VALID,355,VALID,0.367578,
2008-08-08, 07:08:04,VALID,1004.39,VALID,0,VALID,95.0101,VALID,31.8785,VALID,23.7035,VALID,355,VALID,0.210156,
2008-08-08, 07:09:04,VALID,1003.77,VALID,0,VALID,94.9109,VALID,31.4762,VALID,23.7443,VALID,355,VALID,0.192578,
2008-08-08, 07:10:04,VALID,1003.81,VALID,0,VALID,94.8651,VALID,30.9734,VALID,23.7248,VALID,355,VALID,0.153125,
2008-08-08, 09:15:04,VALID,1005.2,VALID,0,VALID,96.2841,VALID,201.93,VALID,23.063,VALID,28,VALID,0.232812,
2008-08-08, 09:16:04,VALID,1005.16,VALID,0,VALID,96.3451,VALID,203.439,VALID,23.1993,VALID,19,VALID,0.325391,
2008-08-08, 09:17:04,VALID,1005.15,VALID,0,VALID,96.307,VALID,202.534,VALID,23.1586,VALID,360,VALID,1.56016,
2008-08-08, 09:18:04,VALID,1005.12,VALID,0,VALID,96.3222,VALID,200.02,VALID,23.2187,VALID,7,VALID,0.901953,
2008-08-08, 09:19:04,VALID,1005.15,VALID,0,VALID,96.307,VALID,197.003,VALID,23.2771,VALID,35,VALID,0.482031,
2008-08-08, 09:20:04,VALID,1005.14,VALID,0,VALID,96.3222,VALID,193.483,VALID,23.2966,VALID,16,VALID,0.297266,
2008-08-08, 09:21:04,VALID,1005.12,VALID,0,VALID,96.3604,VALID,191.774,VALID,23.4134,VALID,18,VALID,0.184375,
2008-08-08, 09:22:04,VALID,1005.11,VALID,0,VALID,96.2994,VALID,190.466,VALID,23.3744,VALID,16,VALID,0.970703,
2008-08-08, 09:23:04,VALID,1005.1,VALID,0,VALID,96.2536,VALID,187.852,VALID,23.3532,VALID,12,VALID,0.855078,
2008-08-08, 09:24:04,VALID,1005.11,VALID,0,VALID,96.2307,VALID,182.019,VALID,23.3727,VALID,2,VALID,0.61875,
2008-08-08, 09:25:04,VALID,1005.08,VALID,0,VALID,96.2154,VALID,175.181,VALID,23.3532,VALID,31,VALID,0.630078,
2008-08-08, 09:26:04,VALID,1005.04,VALID,0,VALID,96.2307,VALID,170.454,VALID,23.4134,VALID,22,VALID,1.05234,
2008-08-08, 09:27:04,VALID,1005.04,VALID,0,VALID,96.2231,VALID,170.856,VALID,23.4718,VALID,359,VALID,0.822656,
2008-08-08, 09:28:04,VALID,1005.02,VALID,0,VALID,96.1315,VALID,177.996,VALID,23.3939,VALID,6,VALID,1.36055,
2008-08-08, 09:29:04,VALID,1004.96,VALID,0,VALID,96.1544,VALID,192.176,VALID,23.4523,VALID,8,VALID,0.675,
2008-08-08, 09:30:04,VALID,1004.92,VALID,0,VALID,96.1163,VALID,202.232,VALID,23.4912,VALID,5,VALID,1.19258,
2008-08-08, 09:31:04,VALID,1004.9,VALID,0,VALID,96.0323,VALID,204.545,VALID,23.4523,VALID,16,VALID,0.935938,
2008-08-08, 09:32:04,VALID,1004.93,VALID,0,VALID,96.0095,VALID,201.93,VALID,23.5107,VALID,356,VALID,1.29258,
2008-08-08, 09:33:04,VALID,1004.91,VALID,0,VALID,96.0018,VALID,198.913,VALID,23.4912,VALID,23,VALID,1.03789,
2008-08-08, 09:34:04,VALID,1004.9,VALID,0,VALID,95.9484,VALID,196.902,VALID,23.4912,VALID,10,VALID,1.69023,
2008-08-08, 09:35:04,VALID,1004.91,VALID,0,VALID,95.8493,VALID,194.388,VALID,23.4523,VALID,8,VALID,1.96289,
2008-08-08, 09:36:04,VALID,1004.94,VALID,0,VALID,95.8569,VALID,191.774,VALID,23.5302,VALID,12,VALID,1.25078,
2008-08-08, 09:37:04,VALID,1004.96,VALID,0,VALID,95.8569,VALID,188.455,VALID,23.5691,VALID,1,VALID,1.94375,
2008-08-08, 09:38:04,VALID,1004.97,VALID,0,VALID,95.8264,VALID,183.025,VALID,23.5691,VALID,10,VALID,0.735547,
2008-08-08, 09:39:04,VALID,1004.96,VALID,0,VALID,95.7043,VALID,180.008,VALID,23.5691,VALID,8,VALID,1.64414,
2008-08-08, 09:40:04,VALID,1005.01,VALID,0,VALID,95.7119,VALID,182.522,VALID,23.5496,VALID,33,VALID,1.3543,
2008-08-08, 09:41:04,VALID,1005,VALID,0,VALID,95.8264,VALID,188.857,VALID,23.6469,VALID,355,VALID,0.75625,
2008-08-08, 09:42:04,VALID,1005.02,VALID,0,VALID,95.9561,VALID,192.779,VALID,23.7637,VALID,7,VALID,0.638281,
2008-08-08, 09:43:04,VALID,1005.03,VALID,0,VALID,95.8874,VALID,194.187,VALID,23.6859,VALID,37,VALID,1.67656,
2008-08-08, 09:44:04,VALID,1005.06,VALID,0,VALID,95.8264,VALID,192.98,VALID,23.7248,VALID,31,VALID,0.966797,
2008-08-08, 09:45:04,VALID,1005.08,VALID,0,VALID,95.8416,VALID,185.338,VALID,23.7248,VALID,74,VALID,0.833203,
2008-08-08, 09:46:04,VALID,1005.1,VALID,0,VALID,95.8187,VALID,177.091,VALID,23.7053,VALID,75,VALID,0.8125,
2008-08-08, 09:47:04,VALID,1005.16,VALID,0,VALID,95.6585,VALID,167.236,VALID,23.6877,VALID,81,VALID,1.66172,
2008-08-08, 09:48:04,VALID,1005.22,VALID,0,VALID,95.4449,VALID,153.761,VALID,23.5885,VALID,79,VALID,1.89844,
2008-08-08, 09:49:04,VALID,1005.27,VALID,0,VALID,95.6128,VALID,143.202,VALID,23.6682,VALID,95,VALID,1.10469,
2008-08-08, 09:50:04,VALID,1005.27,VALID,0,VALID,95.7348,VALID,139.079,VALID,23.6859,VALID,79,VALID,0.970703,
2008-08-08, 09:51:04,VALID,1005.33,VALID,0,VALID,95.7959,VALID,132.844,VALID,23.7266,VALID,99,VALID,1.12617,
2008-08-08, 09:52:04,VALID,1005.32,VALID,0.5,VALID,95.8187,VALID,131.436,VALID,23.6859,VALID,85,VALID,2.12188,
2008-08-08, 09:53:04,VALID,1005.33,VALID,0,VALID,95.773,VALID,131.737,VALID,23.7071,VALID,73,VALID,1.44336,
2008-08-08, 09:54:04,VALID,1005.31,VALID,0.5,VALID,95.7882,VALID,136.866,VALID,23.6859,VALID,47,VALID,0.73125,
2008-08-08, 09:55:04,VALID,1005.28,VALID,0,VALID,95.7806,VALID,135.76,VALID,23.6469,VALID,116,VALID,1.27031,
2008-08-08, 09:56:04,VALID,1005.28,VALID,0,VALID,95.7653,VALID,132.14,VALID,23.6487,VALID,114,VALID,1.1543,
2008-08-08, 09:57:04,VALID,1005.29,VALID,0,VALID,95.8493,VALID,125.905,VALID,23.6664,VALID,93,VALID,1.15703,
2008-08-08, 09:58:04,VALID,1005.26,VALID,0,VALID,95.7424,VALID,123.692,VALID,23.6487,VALID,130,VALID,1.22734,
2008-08-08, 09:59:04,VALID,1005.22,VALID,0.5,VALID,95.8493,VALID,122.586,VALID,23.6664,VALID,146,VALID,1.72617,
2008-08-08, 10:00:04,VALID,1005.13,VALID,0.5,VALID,95.7272,VALID,122.385,VALID,23.6275,VALID,176,VALID,1.62422,
2008-08-08, 10:01:04,VALID,1005.11,VALID,0,VALID,95.7959,VALID,124.597,VALID,23.5868,VALID,162,VALID,0.925391,
2008-08-08, 10:02:04,VALID,1005.07,VALID,0.5,VALID,95.7882,VALID,127.011,VALID,23.5885,VALID,169,VALID,1.12656,
2008-08-08, 10:03:04,VALID,1005.09,VALID,0,VALID,95.8264,VALID,131.335,VALID,23.5885,VALID,166,VALID,1.07148,
2008-08-08, 10:04:04,VALID,1005.05,VALID,0.5,VALID,95.8111,VALID,133.447,VALID,23.5284,VALID,165,VALID,0.528906,
2008-08-08, 10:05:04,VALID,1005.03,VALID,0,VALID,95.8798,VALID,132.844,VALID,23.5885,VALID,188,VALID,0.66875,
2008-08-08, 10:06:04,VALID,1005.07,VALID,0,VALID,95.895,VALID,133.447,VALID,23.5885,VALID,203,VALID,0.303906,
2008-08-08, 10:07:04,VALID,1005.04,VALID,0,VALID,95.9255,VALID,134.855,VALID,23.5691,VALID,203,VALID,0.0375,
2008-08-08, 10:08:04,VALID,1005.06,VALID,0,VALID,95.9484,VALID,137.972,VALID,23.5868,VALID,215,VALID,0.56875,
2008-08-08, 10:09:04,VALID,1005.05,VALID,0,VALID,95.9637,VALID,141.894,VALID,23.5868,VALID,215,VALID,0.419141,
2008-08-08, 10:10:04,VALID,1005.02,VALID,0,VALID,96.0247,VALID,150.14,VALID,23.6257,VALID,210,VALID,0.449609,
2008-08-08, 10:11:04,VALID,1004.99,VALID,0,VALID,95.9713,VALID,164.32,VALID,23.5478,VALID,198,VALID,0.414063,
2008-08-08, 10:12:04,VALID,1004.96,VALID,0,VALID,96.1086,VALID,184.835,VALID,23.6257,VALID,198,VALID,0.207031,
2008-08-08, 10:13:04,VALID,1004.97,VALID,0,VALID,96.1849,VALID,201.528,VALID,23.7619,VALID,198,VALID,0.339844,
2008-08-08, 10:14:04,VALID,1004.99,VALID,0,VALID,96.1773,VALID,220.434,VALID,23.8203,VALID,218,VALID,0.194531,
2008-08-08, 10:15:04,VALID,1004.99,VALID,0,VALID,96.1697,VALID,238.938,VALID,23.9,VALID,221,VALID,0.39375,
2008-08-08, 10:16:04,VALID,1005.01,VALID,0,VALID,96.1315,VALID,255.229,VALID,23.7637,VALID,173,VALID,0.581641,
2008-08-08, 10:17:04,VALID,1005,VALID,0,VALID,96.1468,VALID,273.23,VALID,23.8221,VALID,170,VALID,1.03047,
2008-08-08, 10:18:04,VALID,1004.99,VALID,0,VALID,96.0095,VALID,296.158,VALID,23.6469,VALID,178,VALID,0.963672,
2008-08-08, 10:19:04,VALID,1004.96,VALID,0,VALID,95.8874,VALID,324.315,VALID,23.5478,VALID,181,VALID,0.828906,
2008-08-08, 10:20:04,VALID,1004.96,VALID,0,VALID,95.9103,VALID,366.451,VALID,23.608,VALID,190,VALID,0.647656,
2008-08-08, 10:21:04,VALID,1004.97,VALID,0,VALID,95.9332,VALID,432.722,VALID,23.6487,VALID,187,VALID,0.771875,
2008-08-08, 10:22:04,VALID,1004.95,VALID,0,VALID,96.0781,VALID,474.858,VALID,23.7832,VALID,175,VALID,0.882031,
2008-08-08, 10:23:04,VALID,1004.94,VALID,0,VALID,96.0705,VALID,480.389,VALID,23.7832,VALID,154,VALID,1.13359,
2008-08-08, 10:24:04,VALID,1004.89,VALID,0,VALID,96.0705,VALID,430.611,VALID,23.7832,VALID,117,VALID,1.39102,
2008-08-08, 10:25:04,VALID,1004.86,VALID,0,VALID,96.0934,VALID,426.99,VALID,23.8805,VALID,135,VALID,1.37031,
2008-08-08, 10:26:04,VALID,1004.8,VALID,0,VALID,95.9866,VALID,423.973,VALID,23.7832,VALID,102,VALID,1.21953,
2008-08-08, 10:27:04,VALID,1004.76,VALID,0,VALID,95.9332,VALID,418.644,VALID,23.8221,VALID,109,VALID,1.2668,
2008-08-08, 10:28:04,VALID,1004.7,VALID,0,VALID,96.0247,VALID,416.029,VALID,24.0363,VALID,144,VALID,1.41133,
2008-08-08, 10:29:04,VALID,1004.67,VALID,0,VALID,96.0095,VALID,419.649,VALID,24.0168,VALID,152,VALID,1.83984,
2008-08-08, 10:30:04,VALID,1004.62,VALID,0,VALID,95.9866,VALID,429.705,VALID,24.0168,VALID,113,VALID,1.50391,
2008-08-08, 10:31:04,VALID,1004.58,VALID,0,VALID,95.9789,VALID,445.997,VALID,24.1336,VALID,57,VALID,0.9375,
2008-08-08, 10:32:04,VALID,1004.51,VALID,0,VALID,96.0018,VALID,465.104,VALID,24.231,VALID,80,VALID,0.514063,
2008-08-08, 10:33:04,VALID,1004.48,VALID,0,VALID,96.0095,VALID,476.668,VALID,24.2504,VALID,97,VALID,1.18242,
2008-08-08, 10:34:04,VALID,1004.39,VALID,0,VALID,95.9942,VALID,488.535,VALID,24.3283,VALID,75,VALID,0.480469,
2008-08-08, 10:35:04,VALID,1004.35,VALID,0,VALID,96.0095,VALID,498.591,VALID,24.4451,VALID,65,VALID,0.880078,
2008-08-08, 10:36:04,VALID,1004.32,VALID,0,VALID,95.9332,VALID,497.083,VALID,24.3867,VALID,79,VALID,0.687109,
2008-08-08, 10:37:04,VALID,1004.31,VALID,0,VALID,95.8493,VALID,498.993,VALID,24.4062,VALID,57,VALID,1.22187,
2008-08-08, 10:38:04,VALID,1004.31,VALID,0,VALID,95.8187,VALID,481.898,VALID,24.4859,VALID,118,VALID,1.3332,
2008-08-08, 10:39:04,VALID,1004.35,VALID,0,VALID,95.8187,VALID,476.166,VALID,24.5796,VALID,132,VALID,0.710156,
2008-08-08, 10:40:04,VALID,1004.31,VALID,0,VALID,95.8493,VALID,465.305,VALID,24.6983,VALID,116,VALID,0.759766,
2008-08-08, 10:41:04,VALID,1004.34,VALID,0,VALID,95.6509,VALID,438.052,VALID,24.6028,VALID,131,VALID,0.907422,
2008-08-08, 10:42:04,VALID,1004.32,VALID,0,VALID,95.0101,VALID,424.979,VALID,24.5054,VALID,146,VALID,1.17695,
2008-08-08, 10:43:04,VALID,1004.3,VALID,0,VALID,95.155,VALID,415.426,VALID,24.5638,VALID,140,VALID,0.865625,
2008-08-08, 10:44:04,VALID,1004.3,VALID,0,VALID,95.2847,VALID,406.274,VALID,24.5833,VALID,88,VALID,1.46758,
2008-08-08, 10:45:04,VALID,1004.31,VALID,0,VALID,95.2618,VALID,396.117,VALID,24.6398,VALID,117,VALID,1.5625,
2008-08-08, 10:46:04,VALID,1004.28,VALID,0,VALID,94.9109,VALID,386.966,VALID,24.6009,VALID,136,VALID,1.44375,
2008-08-08, 10:47:04,VALID,1004.28,VALID,0,VALID,94.9414,VALID,379.223,VALID,24.599,VALID,130,VALID,1.14805,
2008-08-08, 10:48:04,VALID,1004.29,VALID,0,VALID,95.3991,VALID,371.681,VALID,24.7956,VALID,82,VALID,0.451562,
2008-08-08, 10:49:04,VALID,1004.27,VALID,0,VALID,95.2847,VALID,364.842,VALID,24.7761,VALID,105,VALID,0.775,
2008-08-08, 10:50:04,VALID,1004.24,VALID,0,VALID,95.1398,VALID,357.602,VALID,24.7761,VALID,92,VALID,0.788672,
2008-08-08, 10:51:04,VALID,1004.26,VALID,0,VALID,95.2695,VALID,350.16,VALID,24.8735,VALID,109,VALID,1.13359,
2008-08-08, 10:52:04,VALID,1004.22,VALID,0,VALID,94.5676,VALID,343.925,VALID,24.7353,VALID,117,VALID,0.839063,
2008-08-08, 10:53:04,VALID,1004.21,VALID,0,VALID,94.9262,VALID,339.4,VALID,24.8151,VALID,114,VALID,1.59531,
2008-08-08, 10:54:04,VALID,1004.2,VALID,0,VALID,94.2701,VALID,336.081,VALID,24.7372,VALID,99,VALID,0.923047,
2008-08-08, 10:55:04,VALID,1004.18,VALID,0,VALID,94.2472,VALID,332.964,VALID,24.7177,VALID,137,VALID,0.804297,
2008-08-08, 10:56:04,VALID,1004.19,VALID,0,VALID,94.3082,VALID,327.131,VALID,24.6983,VALID,144,VALID,0.807031,
2008-08-08, 10:57:04,VALID,1004.22,VALID,0,VALID,94.5676,VALID,314.561,VALID,24.7372,VALID,128,VALID,0.745703,
2008-08-08, 10:58:04,VALID,1004.21,VALID,0,VALID,94.1633,VALID,295.555,VALID,24.6788,VALID,132,VALID,1.14102,
2008-08-08, 10:59:04,VALID,1004.22,VALID,0,VALID,94.5752,VALID,276.146,VALID,24.7372,VALID,116,VALID,1.09531,
2008-08-08, 11:00:04,VALID,1004.2,VALID,0,VALID,94.3769,VALID,255.732,VALID,24.778,VALID,159,VALID,1.00937,
2008-08-08, 11:01:04,VALID,1004.17,VALID,0,VALID,94.5676,VALID,235.116,VALID,24.7761,VALID,136,VALID,0.723828,
2008-08-08, 11:02:04,VALID,1004.17,VALID,0,VALID,94.293,VALID,214.903,VALID,24.778,VALID,156,VALID,0.5375,
2008-08-08, 11:03:04,VALID,1004.15,VALID,0,VALID,94.5066,VALID,193.584,VALID,24.7567,VALID,130,VALID,1.02148,
2008-08-08, 11:04:04,VALID,1004.14,VALID,0,VALID,94.6591,VALID,170.253,VALID,24.7761,VALID,168,VALID,0.584375,
2008-08-08, 11:05:04,VALID,1004.13,VALID,0,VALID,94.6515,VALID,147.928,VALID,24.7956,VALID,156,VALID,1.2668,
2008-08-08, 11:06:04,VALID,1004.1,VALID,0,VALID,94.3311,VALID,131.034,VALID,24.7372,VALID,159,VALID,1.11055,
2008-08-08, 11:07:04,VALID,1004.11,VALID,0.5,VALID,94.2548,VALID,121.681,VALID,24.7196,VALID,121,VALID,1.33828,
2008-08-08, 11:08:04,VALID,1004.1,VALID,0,VALID,94.7278,VALID,114.943,VALID,24.7956,VALID,161,VALID,0.838281,
2008-08-08, 11:09:04,VALID,1004.08,VALID,0,VALID,94.2701,VALID,108.809,VALID,24.6788,VALID,145,VALID,0.524219,
2008-08-08, 11:10:04,VALID,1004.12,VALID,0,VALID,94.4303,VALID,103.479,VALID,24.6593,VALID,161,VALID,0.771875,
2008-08-08, 11:11:04,VALID,1004.09,VALID,0,VALID,94.3998,VALID,98.6523,VALID,24.5814,VALID,146,VALID,0.979688,
2008-08-08, 11:12:04,VALID,1004.12,VALID,0,VALID,94.7812,VALID,94.2275,VALID,24.6398,VALID,169,VALID,0.986328,
2008-08-08, 11:13:04,VALID,1004.11,VALID,0,VALID,94.8728,VALID,89.9033,VALID,24.6204,VALID,150,VALID,0.9,
2008-08-08, 11:14:04,VALID,1004.06,VALID,0,VALID,94.6591,VALID,85.5791,VALID,24.6028,VALID,156,VALID,0.773438,
2008-08-08, 11:15:04,VALID,1004.11,VALID,0,VALID,94.7507,VALID,81.1543,VALID,24.5814,VALID,118,VALID,0.514453,
2008-08-08, 11:16:04,VALID,1004.15,VALID,0,VALID,94.6286,VALID,77.1318,VALID,24.5443,VALID,130,VALID,1.14219,
2008-08-08, 11:17:04,VALID,1004.19,VALID,0,VALID,94.5523,VALID,72.6064,VALID,24.5035,VALID,133,VALID,1.53555,
2008-08-08, 11:18:04,VALID,1004.2,VALID,0,VALID,94.2472,VALID,67.5783,VALID,24.4257,VALID,148,VALID,1.82695,
2008-08-08, 11:19:04,VALID,1004.22,VALID,0,VALID,94.4379,VALID,60.9411,VALID,24.4062,VALID,126,VALID,1.48242,
2008-08-08, 11:20:04,VALID,1004.23,VALID,0,VALID,94.5905,VALID,53.8012,VALID,24.4062,VALID,101,VALID,0.986719,
2008-08-08, 11:21:04,VALID,1004.27,VALID,0,VALID,94.7965,VALID,48.5719,VALID,24.4238,VALID,112,VALID,0.798437,
2008-08-08, 11:22:04,VALID,1004.28,VALID,0,VALID,94.7812,VALID,45.0522,VALID,24.4043,VALID,135,VALID,1.24883,
2008-08-08, 11:23:04,VALID,1004.32,VALID,0,VALID,94.9338,VALID,43.5438,VALID,24.4238,VALID,100,VALID,0.815625,
2008-08-08, 11:24:04,VALID,1004.36,VALID,0,VALID,94.8956,VALID,42.4376,VALID,24.4257,VALID,109,VALID,0.942578,
2008-08-08, 11:25:04,VALID,1004.39,VALID,0,VALID,94.8041,VALID,41.4319,VALID,24.3867,VALID,100,VALID,1.07305,
2008-08-08, 11:26:04,VALID,1004.44,VALID,0,VALID,94.9567,VALID,40.3257,VALID,24.4062,VALID,99,VALID,0.8,
2008-08-08, 11:27:04,VALID,1004.48,VALID,0,VALID,95.0558,VALID,39.0184,VALID,24.4257,VALID,99,VALID,0.435937,
2008-08-08, 11:28:04,VALID,1004.47,VALID,0,VALID,94.9719,VALID,37.3089,VALID,24.3867,VALID,76,VALID,0.608594,
2008-08-08, 11:29:04,VALID,1004.5,VALID,0.5,VALID,94.949,VALID,34.5937,VALID,24.3265,VALID,52,VALID,0.267188,
2008-08-08, 11:30:04,VALID,1004.48,VALID,0,VALID,94.8041,VALID,32.7835,VALID,24.3088,VALID,86,VALID,1.54922,
2008-08-08, 11:31:04,VALID,1004.44,VALID,0,VALID,94.7049,VALID,32.7835,VALID,24.2291,VALID,53,VALID,0.688672,
2008-08-08, 11:32:04,VALID,1004.41,VALID,0,VALID,94.9185,VALID,33.1858,VALID,24.2699,VALID,25,VALID,1.20117,
2008-08-08, 11:33:04,VALID,1004.4,VALID,0,VALID,94.9262,VALID,33.0852,VALID,24.2291,VALID,16,VALID,1.45078,
2008-08-08, 11:34:04,VALID,1004.39,VALID,0,VALID,94.8117,VALID,31.979,VALID,24.2115,VALID,47,VALID,1.04336,
2008-08-08, 11:35:04,VALID,1004.37,VALID,0,VALID,94.9185,VALID,30.8728,VALID,24.2115,VALID,44,VALID,0.456641,
2008-08-08, 11:36:04,VALID,1004.36,VALID,0,VALID,94.9414,VALID,28.9621,VALID,24.1902,VALID,16,VALID,0.759766,
2008-08-08, 11:37:04,VALID,1004.32,VALID,0,VALID,95.1627,VALID,27.5542,VALID,24.2291,VALID,17,VALID,0.234766,
2008-08-08, 11:38:04,VALID,1004.31,VALID,0.5,VALID,95.2542,VALID,27.2526,VALID,24.2291,VALID,16,VALID,0.453125,
2008-08-08, 11:39:04,VALID,1004.31,VALID,0,VALID,95.2466,VALID,26.9509,VALID,24.2291,VALID,16,VALID,0.446875,
2008-08-08, 11:40:04,VALID,1004.29,VALID,0,VALID,95.2313,VALID,26.5486,VALID,24.2486,VALID,20,VALID,0.350781,
2008-08-08, 11:41:04,VALID,1004.29,VALID,0,VALID,95.1245,VALID,26.5486,VALID,24.2097,VALID,19,VALID,0.2625,
2008-08-08, 11:42:04,VALID,1004.29,VALID,0,VALID,94.9338,VALID,27.0514,VALID,24.1513,VALID,345,VALID,0.434766,
2008-08-08, 11:43:04,VALID,1004.24,VALID,0,VALID,95.033,VALID,28.0571,VALID,24.1318,VALID,358,VALID,0.353516,
2008-08-08, 11:44:04,VALID,1004.22,VALID,0,VALID,95.0787,VALID,29.2638,VALID,24.1123,VALID,301,VALID,0.816016,
2008-08-08, 11:45:04,VALID,1004.22,VALID,0,VALID,95.2084,VALID,30.4706,VALID,24.1513,VALID,15,VALID,0.292578,
2008-08-08, 11:46:04,VALID,1004.2,VALID,0.5,VALID,95.2695,VALID,31.8785,VALID,24.1707,VALID,311,VALID,0.521875,
2008-08-08, 11:47:04,VALID,1004.2,VALID,0,VALID,95.3457,VALID,32.3813,VALID,24.1707,VALID,264,VALID,0.461719,
2008-08-08, 11:48:04,VALID,1004.21,VALID,0,VALID,95.1169,VALID,32.3813,VALID,24.1513,VALID,298,VALID,0.782812,
2008-08-08, 11:49:04,VALID,1004.27,VALID,0,VALID,95.0711,VALID,31.8785,VALID,24.1318,VALID,349,VALID,0.720703,
2008-08-08, 11:50:04,VALID,1004.27,VALID,0,VALID,95.155,VALID,31.5768,VALID,24.1123,VALID,341,VALID,0.623438,
2008-08-08, 11:51:04,VALID,1004.3,VALID,0,VALID,95.2161,VALID,30.6717,VALID,24.1336,VALID,3,VALID,0.703906,
2008-08-08, 11:52:04,VALID,1004.3,VALID,0,VALID,95.2237,VALID,29.2638,VALID,24.1142,VALID,3,VALID,0.49375,
2008-08-08, 11:53:04,VALID,1004.35,VALID,0,VALID,95.3457,VALID,28.0571,VALID,24.1336,VALID,6,VALID,0.269922,
2008-08-08, 11:54:04,VALID,1004.34,VALID,0,VALID,95.4297,VALID,27.2526,VALID,24.1318,VALID,6,VALID,0.198047,
2008-08-08, 11:55:04,VALID,1004.33,VALID,0,VALID,95.4831,VALID,26.6492,VALID,24.1726,VALID,6,VALID,0.265234,
2008-08-08, 11:56:04,VALID,1004.33,VALID,0,VALID,95.5517,VALID,25.9452,VALID,24.1939,VALID,6,VALID,0.173828,
2008-08-08, 11:57:04,VALID,1004.35,VALID,0,VALID,95.5288,VALID,25.2413,VALID,24.1531,VALID,6,VALID,0.0671875,
2008-08-08, 11:58:04,VALID,1004.34,VALID,0,VALID,95.5746,VALID,24.3362,VALID,24.1726,VALID,6,VALID,0,
2008-08-08, 11:59:04,VALID,1004.35,VALID,0,VALID,95.3991,VALID,23.1295,VALID,24.1142,VALID,18,VALID,0.459375,
2008-08-08, 12:00:04,VALID,1004.38,VALID,0,VALID,95.4678,VALID,21.7216,VALID,24.1142,VALID,31,VALID,0.433594,
2008-08-08, 12:01:04,VALID,1004.38,VALID,0,VALID,95.5746,VALID,20.9171,VALID,24.1123,VALID,31,VALID,0,
2008-08-08, 12:02:04,VALID,1004.4,VALID,0,VALID,95.6356,VALID,20.8165,VALID,24.1531,VALID,31,VALID,0.380859,
2008-08-08, 12:03:04,VALID,1004.39,VALID,0,VALID,95.5517,VALID,21.2188,VALID,24.1336,VALID,31,VALID,0.306641,
2008-08-08, 12:04:04,VALID,1004.37,VALID,0,VALID,95.6356,VALID,21.9227,VALID,24.1531,VALID,31,VALID,0.00585938,
2008-08-08, 12:05:04,VALID,1004.4,VALID,0,VALID,95.6433,VALID,22.4255,VALID,24.1318,VALID,31,VALID,0.0796875,
2008-08-08, 12:06:04,VALID,1004.39,VALID,0.5,VALID,95.6738,VALID,22.9284,VALID,24.1726,VALID,31,VALID,0,
2008-08-08, 12:07:04,VALID,1004.37,VALID,0,VALID,95.7043,VALID,23.3306,VALID,24.1726,VALID,31,VALID,0.141406,
2008-08-08, 12:08:04,VALID,1004.36,VALID,0,VALID,95.7272,VALID,23.23,VALID,24.192,VALID,31,VALID,0.0917969,
2008-08-08, 12:09:04,VALID,1004.36,VALID,0,VALID,95.7119,VALID,23.1295,VALID,24.1939,VALID,31,VALID,0.223047,
2008-08-08, 12:10:04,VALID,1004.3,VALID,0,VALID,95.7043,VALID,22.6267,VALID,24.1318,VALID,31,VALID,0.28125,
2008-08-08, 12:11:04,VALID,1004.34,VALID,0,VALID,95.7348,VALID,21.1182,VALID,24.1531,VALID,30,VALID,0.459766,
2008-08-08, 12:12:04,VALID,1004.33,VALID,0,VALID,95.7424,VALID,19.4086,VALID,24.1513,VALID,24,VALID,0.575391,
2008-08-08, 12:13:04,VALID,1004.32,VALID,0,VALID,95.7424,VALID,18.8053,VALID,24.192,VALID,24,VALID,0.517969,
2008-08-08, 12:14:04,VALID,1004.32,VALID,0,VALID,95.7577,VALID,19.6098,VALID,24.1726,VALID,24,VALID,0.637109,
2008-08-08, 12:15:04,VALID,1004.37,VALID,0,VALID,95.7424,VALID,20.012,VALID,24.192,VALID,23,VALID,0.647266,
2008-08-08, 12:16:04,VALID,1004.39,VALID,0,VALID,95.7272,VALID,19.0064,VALID,24.1531,VALID,23,VALID,0.760938,
2008-08-08, 12:17:04,VALID,1004.42,VALID,0,VALID,95.5365,VALID,19.6098,VALID,24.0947,VALID,27,VALID,1.51211,
2008-08-08, 12:18:04,VALID,1004.47,VALID,0,VALID,95.3763,VALID,21.3193,VALID,24.0363,VALID,36,VALID,1.025,
2008-08-08, 12:19:04,VALID,1004.54,VALID,0.5,VALID,95.5594,VALID,22.1238,VALID,24.0752,VALID,11,VALID,1.25273,
2008-08-08, 12:20:04,VALID,1004.52,VALID,0,VALID,95.5136,VALID,22.2244,VALID,24.0752,VALID,54,VALID,1.37578,
2008-08-08, 12:21:04,VALID,1004.55,VALID,0,VALID,95.1321,VALID,21.2188,VALID,23.9371,VALID,16,VALID,2.15195,
2008-08-08, 12:22:04,VALID,1004.5,VALID,0,VALID,95.1093,VALID,18.403,VALID,23.9195,VALID,65,VALID,2.16602,
2008-08-08, 12:23:04,VALID,1004.59,VALID,0,VALID,94.9948,VALID,12.5704,VALID,23.8787,VALID,36,VALID,1.69492,
2008-08-08, 12:24:04,VALID,1004.69,VALID,0,VALID,95.094,VALID,8.1456,VALID,23.8787,VALID,13,VALID,1.2375,
2008-08-08, 12:25:04,VALID,1004.74,VALID,0,VALID,95.1245,VALID,7.34109,VALID,23.8611,VALID,81,VALID,0.807031,
2008-08-08, 12:26:04,VALID,1004.8,VALID,0.5,VALID,95.155,VALID,8.9501,VALID,23.8824,VALID,42,VALID,1.8,
2008-08-08, 12:27:04,VALID,1004.8,VALID,0.5,VALID,95.1779,VALID,11.6653,VALID,23.8221,VALID,84,VALID,1.78281,
2008-08-08, 12:28:04,VALID,1004.69,VALID,0.5,VALID,95.1627,VALID,14.9839,VALID,23.7832,VALID,40,VALID,1.82187,
2008-08-08, 12:29:04,VALID,1004.6,VALID,0.5,VALID,95.2923,VALID,19.3081,VALID,23.7637,VALID,14,VALID,1.42266,
2008-08-08, 12:30:04,VALID,1004.54,VALID,0.5,VALID,95.2389,VALID,21.2188,VALID,23.6841,VALID,354,VALID,1.74063,
2008-08-08, 12:31:04,VALID,1004.51,VALID,0,VALID,95.3763,VALID,22.9284,VALID,23.6859,VALID,20,VALID,0.533984,
2008-08-08, 12:32:04,VALID,1004.4,VALID,0,VALID,95.4907,VALID,24.7385,VALID,23.6646,VALID,104,VALID,0.311328,
2008-08-08, 12:33:04,VALID,1004.43,VALID,0,VALID,95.567,VALID,26.8503,VALID,23.6646,VALID,82,VALID,0.691797,
2008-08-08, 12:34:04,VALID,1004.38,VALID,0,VALID,95.6051,VALID,28.2582,VALID,23.6664,VALID,86,VALID,0.234766,
2008-08-08, 12:35:04,VALID,1004.35,VALID,0,VALID,95.7196,VALID,29.1633,VALID,23.6841,VALID,169,VALID,0.970703,
2008-08-08, 12:36:04,VALID,1004.3,VALID,0.5,VALID,95.8035,VALID,29.8672,VALID,23.7035,VALID,165,VALID,0.879297,
2008-08-08, 12:37:04,VALID,1004.24,VALID,0,VALID,95.6738,VALID,29.7666,VALID,23.6646,VALID,149,VALID,0.391406,
2008-08-08, 12:38:04,VALID,1004.24,VALID,0,VALID,95.7272,VALID,29.3644,VALID,23.7053,VALID,149,VALID,0.220313,
2008-08-08, 12:39:04,VALID,1004.18,VALID,0,VALID,95.7653,VALID,29.6661,VALID,23.6841,VALID,149,VALID,0.257422,
2008-08-08, 12:40:04,VALID,1004.19,VALID,0,VALID,95.7196,VALID,30.4706,VALID,23.6859,VALID,126,VALID,0.490234,
2008-08-08, 12:41:04,VALID,1004.15,VALID,0,VALID,95.7501,VALID,31.2751,VALID,23.6664,VALID,130,VALID,0.346094,